This is the latest recevied weather packets stored in our database for station/object WB9FIU. If no packets are shown the sender has not sent any weather packets the latest 1 day(s).
| Time | Temp. | Humidity | Pressure | Rain* | Wind** | Luminosity | Snow |
|---|---|---|---|---|---|---|---|
| 1778074142 | 10° C | 80% | 1012.2 hPa | 0 mm | - | - | - |
| 1778073902 | 10° C | 79% | 1012.2 hPa | 0 mm | - | - | - |
| 1778073841 | 10° C | 78% | 1012.3 hPa | 0 mm | - | - | - |
| 1778073183 | 10° C | 83% | 1012.3 hPa | 0 mm | - | - | - |
| 1778072822 | 9.44° C | 81% | 1012.2 hPa | 0 mm | - | - | - |
| 1778072762 | 9.44° C | 82% | 1012.2 hPa | 0 mm | - | - | - |
| 1778072642 | 9.44° C | 83% | 1012.3 hPa | 0 mm | - | - | - |
| 1778072523 | 9.44° C | 84% | 1012.4 hPa | 0 mm | - | - | - |
| 1778072341 | 9.44° C | 84% | 1012.2 hPa | 0 mm | - | - | - |
| 1778072281 | 9.44° C | 83% | 1012.3 hPa | 0 mm | - | - | - |
| 1778072221 | 9.44° C | 84% | 1012.3 hPa | 0 mm | - | - | - |
| 1778072101 | 9.44° C | 85% | 1012.3 hPa | 0 mm | - | - | - |
| 1778072042 | 9.44° C | 85% | 1012.2 hPa | 0 mm | - | - | - |
| 1778071921 | 9.44° C | 86% | 1012.2 hPa | 0 mm | - | - | - |
| 1778070361 | 8.33° C | 88% | 1012.4 hPa | 0 mm | - | - | - |
| 1778070184 | 8.33° C | 88% | 1012.4 hPa | 0 mm | - | - | - |
| 1778070121 | 8.33° C | 88% | 1012.3 hPa | 0 mm | - | - | - |
| 1778070002 | 8.33° C | 88% | 1012.3 hPa | 0 mm | - | - | - |
| 1778069823 | 8.33° C | 88% | 1012.3 hPa | 0 mm | - | - | - |
| 1778069582 | 8.33° C | 88% | 1012 hPa | 0 mm | - | - | - |
| 1778069524 | 8.33° C | 87% | 1012 hPa | 0 mm | - | - | - |
| 1778069342 | 8.33° C | 88% | 1011.8 hPa | 0 mm | - | - | - |
| 1778069285 | 8.33° C | 88% | 1011.7 hPa | 0 mm | - | - | - |
| 1778069221 | 8.33° C | 88% | 1011.7 hPa | 0 mm | - | - | - |
| 1778069042 | 8.33° C | 88% | 1011.6 hPa | 0 mm | - | - | - |
* Rain latest hour (hover to see other rain measurements)
** Current wind speed in m/s (hover to see current wind gust speed)